Marshfield, WI

2:48 PM CST on December 12, 2017 (GMT -0600)
Marshfield Municipal

Weather History for KMFI - April, 2014

Change the Weather History Date:

Friday, April 11, 2014

  Actual Average Record
Temperature  
Mean Temperature 47 °F -  
Max Temperature 57 °F 52 °F 82 °F (1977)
Min Temperature 37 °F 30 °F 12 °F (1957)
Degree Days  
Heating Degree Days 18    
Moisture  
Dew Point 30 °F    
Average Humidity 55    
Maximum Humidity 68    
Minimum Humidity 44    
Precipitation  
Precipitation 0.00 in - - ()
Sea Level Pressure  
Sea Level Pressure 29.98 in    
Wind  
Wind Speed 5 mph (WNW)    
Max Wind Speed 15 mph    
Max Gust Speed 20 mph    
Visibility 10 miles    
Events Rain    
Averages and records for this station are not official NWS values.
T = Trace of Precipitation, MM = Missing Value Source: NWS Daily Summary

Daily Weather History Graph

Daily Weather History Graph

Search for Another Location

Airport or City:

Trip Planner

Search our weather history database for the weather conditions in past years. The results will help you decide how hot, cold, wet, or windy it might be!

Date:

Astronomy

Apr. 11, 2014 Rise Set
Actual Time 6:23 AM CDT 7:40 PM CDT
Civil Twilight 5:53 AM CDT 8:10 PM CDT
Nautical Twilight 5:17 AM CDT 8:47 PM CDT
Astronomical Twilight 4:38 AM CDT 9:25 PM CDT
Moon 4:13 PM CDT (4/11) 4:27 AM CDT (4/11)
Length of Visible Light 14h 17m
Length of Day
13h 17m
Waxing Gibbous, 87% of the Moon is Illuminated
Apr 11
Waxing Gibbous
Apr 15
Full
Apr 22
Last Quarter
Apr 29
New
May 6
First Quarter

Hourly Weather History & Observations

Time (CDT) Temp. Windchill Dew Point Humidity Pressure Visibility Wind Dir Wind Speed Gust Speed Precip Events Conditions
12:54 AM 37.9 °F 34.4 °F 21.9 °F 53% 29.94 in 10.0 mi WSW 4.6 mph - N/A   Clear
1:54 AM 41.0 °F 37.1 °F 21.9 °F 47% 29.94 in 10.0 mi West 5.8 mph - N/A   Clear
2:54 AM 39.9 °F 35.1 °F 21.0 °F 47% 29.95 in 10.0 mi West 6.9 mph - N/A   Clear
3:54 AM 39.9 °F 35.8 °F 21.9 °F 49% 29.95 in 10.0 mi West 5.8 mph - N/A   Clear
4:54 AM 37.9 °F 34.4 °F 21.9 °F 53% 29.96 in 10.0 mi West 4.6 mph - N/A   Clear
5:54 AM 37.0 °F 33.3 °F 23.0 °F 57% 29.96 in 10.0 mi WSW 4.6 mph - N/A   Scattered Clouds
6:54 AM 37.0 °F - 25.0 °F 62% 29.97 in 10.0 mi Calm Calm - N/A   Partly Cloudy
7:54 AM 39.9 °F 35.8 °F 27.0 °F 60% 30.00 in 10.0 mi NW 5.8 mph - N/A   Mostly Cloudy
8:54 AM 45.0 °F 43.5 °F 27.0 °F 49% 30.00 in 10.0 mi Variable 3.5 mph - N/A   Overcast
9:54 AM 48.0 °F - 28.0 °F 46% 30.01 in 10.0 mi WSW 4.6 mph - N/A   Overcast
10:54 AM 48.0 °F - 30.9 °F 52% 30.01 in 10.0 mi West 15.0 mph 19.6 mph 0.00 in Rain Light Rain
11:54 AM 46.0 °F 42.5 °F 36.0 °F 68% 30.01 in 10.0 mi SW 6.9 mph - 0.00 in   Overcast
12:54 PM 48.0 °F - 37.0 °F 66% 30.00 in 10.0 mi West 3.5 mph - 0.00 in   Overcast
1:54 PM 50.0 °F - 39.0 °F 66% 29.99 in 10.0 mi North 6.9 mph - 0.00 in   Overcast
2:54 PM 52.0 °F - 39.0 °F 61% 29.98 in 10.0 mi North 3.5 mph - N/A   Mostly Cloudy
3:54 PM 57.0 °F - 39.9 °F 53% 29.96 in 10.0 mi NW 6.9 mph - N/A   Clear
4:54 PM 57.9 °F - 37.0 °F 46% 29.96 in 10.0 mi NNW 5.8 mph - N/A   Clear
5:54 PM 57.0 °F - 35.1 °F 44% 29.96 in 10.0 mi North 10.4 mph - N/A   Clear
6:54 PM 54.0 °F - 33.1 °F 45% 29.96 in 10.0 mi North 8.1 mph - N/A   Clear
7:54 PM 50.0 °F - 30.9 °F 48% 29.97 in 10.0 mi Calm Calm - N/A   Clear
8:54 PM 46.9 °F - 30.9 °F 54% 29.99 in 10.0 mi Calm Calm - N/A   Clear
9:54 PM 45.0 °F 43.5 °F 33.1 °F 63% 30.01 in 10.0 mi East 3.5 mph - N/A   Clear
10:54 PM 45.0 °F - 33.1 °F 63% 30.01 in 10.0 mi Calm Calm - N/A   Clear
11:54 PM 43.0 °F - 33.1 °F 68% 30.01 in 10.0 mi Calm Calm - N/A   Clear